EW1011 Weather Reports


time (UTC)temp
C
wind
direction
speed
KPH
gust
KPH
rain 1hr
cm
rain 24hr
cm
rain mn
cm
humidity
%
barometer
mb
20260504081509 9 260 0.0 0.0 0.00 0.00 0.00 68 1014.0
20260504044550 6 260 0.0 0.0 0.00 0.00 0.00 75 1014.5
20260504043054 6 260 0.0 0.0 0.00 0.00 0.00 75 1014.4
20260504041546 6 260 0.0 0.0 0.00 0.00 0.00 75 1014.4
20260504040045 7 260 0.0 0.0 0.00 0.00 0.00 73 1014.2
20260504034550 7 260 0.0 0.0 0.00 0.00 0.00 74 1014.1
20260504033042 7 260 0.0 0.0 0.00 0.00 0.00 75 1014.0
20260504031543 7 260 0.0 0.0 0.00 0.00 0.00 72 1013.8
20260504030040 7 260 0.0 0.0 0.00 0.00 0.00 71 1013.9
20260504024546 7 260 0.0 0.0 0.00 0.00 0.00 70 1013.7
20260504023039 8 260 0.0 0.0 0.00 0.00 0.00 67 1013.8
20260504021540 8 260 0.0 0.0 0.00 0.00 0.00 65 1013.7
20260504020041 8 260 0.0 0.0 0.00 0.00 0.00 63 1013.6
20260504014539 8 260 0.0 0.0 0.00 0.00 0.00 60 1013.6
20260504013053 9 260 0.0 0.0 0.00 0.00 0.00 60 1013.5
20260504011536 10 260 0.0 0.0 0.00 0.00 0.00 57 1013.5
20260504010040 10 260 0.0 0.0 0.00 0.00 0.00 55 1013.4
20260504004536 11 260 0.0 0.0 0.00 0.00 0.00 51 1013.3
20260504003035 11 260 0.0 0.0 0.00 0.00 0.00 46 1013.0
20260504001538 12 260 0.0 0.0 0.00 0.00 0.00 43 1013.0
20260504000033 13 260 0.0 0.0 0.00 0.00 0.00 39 1012.9
20260503234534 15 260 0.0 1.6 0.00 0.00 0.00 33 1012.6
20260503233033 16 262 0.0 3.2 0.00 0.00 0.00 30 1012.5
20260503231533 16 262 0.0 4.8 0.00 0.00 0.00 29 1012.5
20260503230039 16 227 0.0 4.8 0.00 0.00 0.00 29 1012.5
20260503224532 17 198 0.0 9.7 0.00 0.00 0.00 28 1012.5
20260503223031 17 246 0.0 6.4 0.00 0.00 0.00 27 1012.5
20260503221532 17 243 0.0 6.4 0.00 0.00 0.00 29 1012.5
20260503220031 17 202 0.0 6.4 0.00 0.00 0.00 28 1012.5
20260503214538 17 268 1.6 11.3 0.00 0.00 0.00 28 1012.5
20260503213029 17 267 1.6 9.7 0.00 0.00 0.00 28 1012.5
20260503211529 17 244 0.0 8.0 0.00 0.00 0.00 29 1012.5
20260503210028 17 211 0.0 9.7 0.00 0.00 0.00 29 1012.5
20260503204528 17 132 3.2 8.0 0.00 0.00 0.00 29 1012.6
20260503203033 17 179 1.6 8.0 0.00 0.00 0.00 31 1012.8
20260503201526 17 256 1.6 8.0 0.00 0.00 0.00 30 1013.0
20260503200027 16 250 1.6 9.7 0.00 0.00 0.00 30 1013.2
20260503194524 16 259 1.6 11.3 0.00 0.00 0.00 31 1013.4
20260503193038 16 253 1.6 8.0 0.00 0.00 0.00 31 1013.5
20260503191549 16 239 1.6 11.3 0.00 0.00 0.00 31 1013.6
20260503190027 16 245 0.0 9.7 0.00 0.00 0.00 33 1013.8
20260503184521 16 262 3.2 9.7 0.00 0.00 0.00 33 1014.0
20260503183020 16 266 1.6 9.7 0.00 0.00 0.00 34 1014.0
20260503181519 15 203 1.6 8.0 0.00 0.00 0.00 34 1014.0
20260503180024 15 256 1.6 11.3 0.00 0.00 0.00 34 1014.2
20260503174518 15 265 1.6 8.0 0.00 0.00 0.00 32 1014.5
20260503173016 14 257 0.0 6.4 0.00 0.00 0.00 35 1014.4
20260503171512 -17 247 3.2 9.7 0.00 0.00 0.00 1014.7